Year,Month,Day,Hour,Minute,Value (Times are PST for insolation in W/m^2)
2009,11,11,00,00,0.00
2009,11,11,00,01,0.00
2009,11,11,00,02,0.00
2009,11,11,00,03,0.00
2009,11,11,00,04,0.00
2009,11,11,00,05,0.00
2009,11,11,00,06,0.00
2009,11,11,00,07,0.00
2009,11,11,00,08,0.00
2009,11,11,00,09,0.00
2009,11,11,00,10,0.00
2009,11,11,00,11,0.00
2009,11,11,00,12,0.00
2009,11,11,00,13,0.00
2009,11,11,00,14,0.00
2009,11,11,00,15,0.00
2009,11,11,00,16,0.00
2009,11,11,00,17,0.00
2009,11,11,00,18,0.00
2009,11,11,00,19,0.00
2009,11,11,00,20,0.00
2009,11,11,00,21,0.00
2009,11,11,00,22,0.00
2009,11,11,00,23,0.00
2009,11,11,00,24,0.00
2009,11,11,00,25,0.00
2009,11,11,00,26,0.00
2009,11,11,00,27,0.00
2009,11,11,00,28,0.00
2009,11,11,00,29,0.00
2009,11,11,00,30,0.00
2009,11,11,00,31,0.00
2009,11,11,00,32,0.00
2009,11,11,00,33,0.00
2009,11,11,00,34,0.00
2009,11,11,00,35,0.00
2009,11,11,00,36,0.00
2009,11,11,00,37,0.00
2009,11,11,00,38,0.00
2009,11,11,00,39,0.00
2009,11,11,00,40,0.00
2009,11,11,00,41,0.00
2009,11,11,00,42,0.00
2009,11,11,00,43,0.00
2009,11,11,00,44,0.00
2009,11,11,00,45,0.00
2009,11,11,00,46,0.00
2009,11,11,00,47,0.00
2009,11,11,00,48,0.00
2009,11,11,00,49,0.00
2009,11,11,00,50,0.00
2009,11,11,00,51,0.00
2009,11,11,00,52,0.00
2009,11,11,00,53,0.00
2009,11,11,00,54,0.00
2009,11,11,00,55,0.00
2009,11,11,00,56,0.00
2009,11,11,00,57,0.00
2009,11,11,00,58,0.00
2009,11,11,00,59,0.00
2009,11,11,01,00,0.00
2009,11,11,01,01,0.00
2009,11,11,01,02,0.00
2009,11,11,01,03,0.00
2009,11,11,01,04,0.00
2009,11,11,01,05,0.00
2009,11,11,01,06,0.00
2009,11,11,01,07,0.00
2009,11,11,01,08,0.00
2009,11,11,01,09,0.00
2009,11,11,01,10,0.00
2009,11,11,01,11,0.00
2009,11,11,01,12,0.00
2009,11,11,01,13,0.00
2009,11,11,01,14,0.00
2009,11,11,01,15,0.00
2009,11,11,01,16,0.00
2009,11,11,01,17,0.00
2009,11,11,01,18,0.00
2009,11,11,01,19,0.00
2009,11,11,01,20,0.00
2009,11,11,01,21,0.00
2009,11,11,01,22,0.00
2009,11,11,01,23,0.00
2009,11,11,01,24,0.00
2009,11,11,01,25,0.00
2009,11,11,01,26,0.00
2009,11,11,01,27,0.00
2009,11,11,01,28,0.00
2009,11,11,01,29,0.00
2009,11,11,01,30,0.00
2009,11,11,01,31,0.00
2009,11,11,01,32,0.00
2009,11,11,01,33,0.00
2009,11,11,01,34,0.00
2009,11,11,01,35,0.00
2009,11,11,01,36,0.00
2009,11,11,01,37,0.00
2009,11,11,01,38,0.00
2009,11,11,01,39,0.00
2009,11,11,01,40,0.00
2009,11,11,01,41,0.00
2009,11,11,01,42,0.00
2009,11,11,01,43,0.00
2009,11,11,01,44,0.00
2009,11,11,01,45,0.00
2009,11,11,01,46,0.00
2009,11,11,01,47,0.00
2009,11,11,01,48,0.00
2009,11,11,01,49,0.00
2009,11,11,01,50,0.00
2009,11,11,01,51,0.00
2009,11,11,01,52,0.00
2009,11,11,01,53,0.00
2009,11,11,01,54,0.00
2009,11,11,01,55,0.00
2009,11,11,01,56,0.00
2009,11,11,01,57,0.00
2009,11,11,01,58,0.00
2009,11,11,01,59,0.00
2009,11,11,02,00,0.00
2009,11,11,02,01,0.00
2009,11,11,02,02,0.00
2009,11,11,02,03,0.00
2009,11,11,02,04,0.00
2009,11,11,02,05,0.00
2009,11,11,02,06,0.00
2009,11,11,02,07,0.00
2009,11,11,02,08,0.00
2009,11,11,02,09,0.00
2009,11,11,02,10,0.00
2009,11,11,02,11,0.00
2009,11,11,02,12,0.00
2009,11,11,02,13,0.00
2009,11,11,02,14,0.00
2009,11,11,02,15,0.00
2009,11,11,02,16,0.00
2009,11,11,02,17,0.00
2009,11,11,02,18,0.00
2009,11,11,02,19,0.00
2009,11,11,02,20,0.00
2009,11,11,02,21,0.00
2009,11,11,02,22,0.00
2009,11,11,02,23,0.00
2009,11,11,02,24,0.00
2009,11,11,02,25,0.00
2009,11,11,02,26,0.00
2009,11,11,02,27,0.00
2009,11,11,02,28,0.00
2009,11,11,02,29,0.00
2009,11,11,02,30,0.00
2009,11,11,02,31,0.00
2009,11,11,02,32,0.00
2009,11,11,02,33,0.00
2009,11,11,02,34,0.00
2009,11,11,02,35,0.00
2009,11,11,02,36,0.00
2009,11,11,02,37,0.00
2009,11,11,02,38,0.00
2009,11,11,02,39,0.00
2009,11,11,02,40,0.00
2009,11,11,02,41,0.00
2009,11,11,02,42,0.00
2009,11,11,02,43,0.00
2009,11,11,02,44,0.00
2009,11,11,02,45,0.00
2009,11,11,02,46,0.00
2009,11,11,02,47,0.00
2009,11,11,02,48,0.00
2009,11,11,02,49,0.00
2009,11,11,02,50,0.00
2009,11,11,02,51,0.00
2009,11,11,02,52,0.00
2009,11,11,02,53,0.00
2009,11,11,02,54,0.00
2009,11,11,02,55,0.00
2009,11,11,02,56,0.00
2009,11,11,02,57,0.00
2009,11,11,02,58,0.00
2009,11,11,02,59,0.00
2009,11,11,03,00,0.00
2009,11,11,03,01,0.00
2009,11,11,03,02,0.00
2009,11,11,03,03,0.00
2009,11,11,03,04,0.00
2009,11,11,03,05,0.00
2009,11,11,03,06,0.00
2009,11,11,03,07,0.00
2009,11,11,03,08,0.00
2009,11,11,03,09,0.00
2009,11,11,03,10,0.00
2009,11,11,03,11,0.00
2009,11,11,03,12,0.00
2009,11,11,03,13,0.00
2009,11,11,03,14,0.00
2009,11,11,03,15,0.00
2009,11,11,03,16,0.00
2009,11,11,03,17,0.00
2009,11,11,03,18,0.00
2009,11,11,03,19,0.00
2009,11,11,03,20,0.00
2009,11,11,03,21,0.00
2009,11,11,03,22,0.00
2009,11,11,03,23,0.00
2009,11,11,03,24,0.00
2009,11,11,03,25,0.00
2009,11,11,03,26,0.00
2009,11,11,03,27,0.00
2009,11,11,03,28,0.00
2009,11,11,03,29,0.00
2009,11,11,03,30,0.00
2009,11,11,03,31,0.00
2009,11,11,03,32,0.00
2009,11,11,03,33,0.00
2009,11,11,03,34,0.00
2009,11,11,03,35,0.00
2009,11,11,03,36,0.00
2009,11,11,03,37,0.00
2009,11,11,03,38,0.00
2009,11,11,03,39,0.00
2009,11,11,03,40,0.00
2009,11,11,03,41,0.00
2009,11,11,03,42,0.00
2009,11,11,03,43,0.00
2009,11,11,03,44,0.00
2009,11,11,03,45,0.00
2009,11,11,03,46,0.00
2009,11,11,03,47,0.00
2009,11,11,03,48,0.00
2009,11,11,03,49,0.00
2009,11,11,03,50,0.00
2009,11,11,03,51,0.00
2009,11,11,03,52,0.00
2009,11,11,03,53,0.00
2009,11,11,03,54,0.00
2009,11,11,03,55,0.00
2009,11,11,03,56,0.00
2009,11,11,03,57,0.00
2009,11,11,03,58,0.00
2009,11,11,03,59,0.00
2009,11,11,04,00,0.00
2009,11,11,04,01,0.00
2009,11,11,04,02,0.00
2009,11,11,04,03,0.00
2009,11,11,04,04,0.00
2009,11,11,04,05,0.00
2009,11,11,04,06,0.00
2009,11,11,04,07,0.00
2009,11,11,04,08,0.00
2009,11,11,04,09,0.00
2009,11,11,04,10,0.00
2009,11,11,04,11,0.00
2009,11,11,04,12,0.00
2009,11,11,04,13,0.00
2009,11,11,04,14,0.00
2009,11,11,04,15,0.00
2009,11,11,04,16,0.00
2009,11,11,04,17,0.00
2009,11,11,04,18,0.00
2009,11,11,04,19,0.00
2009,11,11,04,20,0.00
2009,11,11,04,21,0.00
2009,11,11,04,22,0.00
2009,11,11,04,23,0.00
2009,11,11,04,24,0.00
2009,11,11,04,25,0.00
2009,11,11,04,26,0.00
2009,11,11,04,27,0.00
2009,11,11,04,28,0.00
2009,11,11,04,29,0.00
2009,11,11,04,30,0.00
2009,11,11,04,31,0.00
2009,11,11,04,32,0.00
2009,11,11,04,33,0.00
2009,11,11,04,34,0.00
2009,11,11,04,35,0.00
2009,11,11,04,36,0.00
2009,11,11,04,37,0.00
2009,11,11,04,38,0.00
2009,11,11,04,39,0.00
2009,11,11,04,40,0.00
2009,11,11,04,41,0.00
2009,11,11,04,42,0.00
2009,11,11,04,43,0.00
2009,11,11,04,44,0.00
2009,11,11,04,45,0.00
2009,11,11,04,46,0.00
2009,11,11,04,47,0.00
2009,11,11,04,48,0.00
2009,11,11,04,49,0.00
2009,11,11,04,50,0.00
2009,11,11,04,51,0.00
2009,11,11,04,52,0.00
2009,11,11,04,53,0.00
2009,11,11,04,54,0.00
2009,11,11,04,55,0.00
2009,11,11,04,56,0.00
2009,11,11,04,57,0.00
2009,11,11,04,58,0.00
2009,11,11,04,59,0.00
2009,11,11,05,00,0.00
2009,11,11,05,01,0.00
2009,11,11,05,02,0.00
2009,11,11,05,03,0.00
2009,11,11,05,04,0.00
2009,11,11,05,05,0.00
2009,11,11,05,06,0.00
2009,11,11,05,07,0.00
2009,11,11,05,08,0.00
2009,11,11,05,09,0.00
2009,11,11,05,10,0.00
2009,11,11,05,11,0.00
2009,11,11,05,12,0.00
2009,11,11,05,13,0.00
2009,11,11,05,14,0.00
2009,11,11,05,15,0.00
2009,11,11,05,16,0.00
2009,11,11,05,17,0.00
2009,11,11,05,18,0.00
2009,11,11,05,19,0.00
2009,11,11,05,20,0.00
2009,11,11,05,21,0.00
2009,11,11,05,22,0.00
2009,11,11,05,23,0.00
2009,11,11,05,24,0.00
2009,11,11,05,25,0.00
2009,11,11,05,26,0.00
2009,11,11,05,27,0.00
2009,11,11,05,28,0.00
2009,11,11,05,29,0.00
2009,11,11,05,30,0.00
2009,11,11,05,31,0.00
2009,11,11,05,32,0.00
2009,11,11,05,33,0.00
2009,11,11,05,34,0.00
2009,11,11,05,35,0.00
2009,11,11,05,36,0.00
2009,11,11,05,37,0.00
2009,11,11,05,38,0.00
2009,11,11,05,39,0.00
2009,11,11,05,40,0.00
2009,11,11,05,41,0.00
2009,11,11,05,42,0.00
2009,11,11,05,43,0.00
2009,11,11,05,44,0.00
2009,11,11,05,45,0.00
2009,11,11,05,46,0.00
2009,11,11,05,47,0.00
2009,11,11,05,48,0.00
2009,11,11,05,49,0.00
2009,11,11,05,50,0.00
2009,11,11,05,51,0.00
2009,11,11,05,52,0.00
2009,11,11,05,53,0.00
2009,11,11,05,54,0.00
2009,11,11,05,55,0.00
2009,11,11,05,56,0.00
2009,11,11,05,57,0.00
2009,11,11,05,58,0.00
2009,11,11,05,59,0.00
2009,11,11,06,00,0.00
2009,11,11,06,01,0.00
2009,11,11,06,02,0.00
2009,11,11,06,03,0.00
2009,11,11,06,04,0.00
2009,11,11,06,05,0.00
2009,11,11,06,06,0.00
2009,11,11,06,07,0.00
2009,11,11,06,08,0.00
2009,11,11,06,09,0.00
2009,11,11,06,10,0.00
2009,11,11,06,11,0.00
2009,11,11,06,12,0.00
2009,11,11,06,13,0.00
2009,11,11,06,14,0.00
2009,11,11,06,15,0.00
2009,11,11,06,16,0.00
2009,11,11,06,17,0.00
2009,11,11,06,18,0.00
2009,11,11,06,19,0.00
2009,11,11,06,20,0.00
2009,11,11,06,21,0.00
2009,11,11,06,22,0.00
2009,11,11,06,23,0.00
2009,11,11,06,24,0.00
2009,11,11,06,25,0.00
2009,11,11,06,26,0.00
2009,11,11,06,27,0.00
2009,11,11,06,28,0.00
2009,11,11,06,29,0.00
2009,11,11,06,30,0.00
2009,11,11,06,31,0.00
2009,11,11,06,32,0.00
2009,11,11,06,33,0.00
2009,11,11,06,34,0.00
2009,11,11,06,35,0.00
2009,11,11,06,36,0.00
2009,11,11,06,37,0.00
2009,11,11,06,38,0.00
2009,11,11,06,39,0.00
2009,11,11,06,40,0.00
2009,11,11,06,41,0.00
2009,11,11,06,42,0.00
2009,11,11,06,43,0.00
2009,11,11,06,44,0.00
2009,11,11,06,45,0.00
2009,11,11,06,46,0.00
2009,11,11,06,47,0.00
2009,11,11,06,48,0.00
2009,11,11,06,49,0.00
2009,11,11,06,50,0.00
2009,11,11,06,51,0.00
2009,11,11,06,52,0.00
2009,11,11,06,53,0.00
2009,11,11,06,54,0.00
2009,11,11,06,55,0.00
2009,11,11,06,56,0.00
2009,11,11,06,57,0.00
2009,11,11,06,58,0.00
2009,11,11,06,59,0.00
2009,11,11,07,00,0.00
2009,11,11,07,01,0.00
2009,11,11,07,02,0.00
2009,11,11,07,03,0.00
2009,11,11,07,04,0.00
2009,11,11,07,05,0.00
2009,11,11,07,06,0.00
2009,11,11,07,07,0.00
2009,11,11,07,08,0.00
2009,11,11,07,09,0.00
2009,11,11,07,10,0.00
2009,11,11,07,11,0.00
2009,11,11,07,12,0.00
2009,11,11,07,13,0.00
2009,11,11,07,14,2.30
2009,11,11,07,15,5.00
2009,11,11,07,16,5.00
2009,11,11,07,17,5.00
2009,11,11,07,18,5.50
2009,11,11,07,19,7.00
2009,11,11,07,20,7.00
2009,11,11,07,21,7.00
2009,11,11,07,22,7.00
2009,11,11,07,23,9.20
2009,11,11,07,24,11.60
2009,11,11,07,25,14.70
2009,11,11,07,26,17.00
2009,11,11,07,27,18.70
2009,11,11,07,28,22.20
2009,11,11,07,29,25.10
2009,11,11,07,30,26.00
2009,11,11,07,31,27.60
2009,11,11,07,32,31.10
2009,11,11,07,33,32.70
2009,11,11,07,34,34.80
2009,11,11,07,35,37.40
2009,11,11,07,36,40.50
2009,11,11,07,37,42.80
2009,11,11,07,38,44.00
2009,11,11,07,39,45.50
2009,11,11,07,40,46.90
2009,11,11,07,41,48.90
2009,11,11,07,42,49.60
2009,11,11,07,43,52.20
2009,11,11,07,44,56.30
2009,11,11,07,45,61.50
2009,11,11,07,46,64.90
2009,11,11,07,47,67.00
2009,11,11,07,48,67.00
2009,11,11,07,49,68.00
2009,11,11,07,50,72.20
2009,11,11,07,51,78.00
2009,11,11,07,52,79.00
2009,11,11,07,53,90.20
2009,11,11,07,54,90.70
2009,11,11,07,55,87.40
2009,11,11,07,56,83.30
2009,11,11,07,57,83.80
2009,11,11,07,58,85.80
2009,11,11,07,59,87.20
2009,11,11,08,00,82.20
2009,11,11,08,01,79.00
2009,11,11,08,02,70.80
2009,11,11,08,03,63.80
2009,11,11,08,04,77.00
2009,11,11,08,05,85.40
2009,11,11,08,06,91.90
2009,11,11,08,07,90.50
2009,11,11,08,08,98.90
2009,11,11,08,09,109.30
2009,11,11,08,10,112.90
2009,11,11,08,11,113.80
2009,11,11,08,12,116.80
2009,11,11,08,13,119.20
2009,11,11,08,14,122.20
2009,11,11,08,15,118.70
2009,11,11,08,16,117.50
2009,11,11,08,17,128.90
2009,11,11,08,18,130.10
2009,11,11,08,19,127.60
2009,11,11,08,20,142.60
2009,11,11,08,21,146.30
2009,11,11,08,22,135.90
2009,11,11,08,23,153.50
2009,11,11,08,24,155.40
2009,11,11,08,25,156.00
2009,11,11,08,26,155.30
2009,11,11,08,27,155.90
2009,11,11,08,28,158.00
2009,11,11,08,29,127.50
2009,11,11,08,30,62.50
2009,11,11,08,31,87.10
2009,11,11,08,32,150.00
2009,11,11,08,33,148.90
2009,11,11,08,34,57.60
2009,11,11,08,35,56.00
2009,11,11,08,36,54.50
2009,11,11,08,37,53.00
2009,11,11,08,38,153.00
2009,11,11,08,39,103.90
2009,11,11,08,40,125.00
2009,11,11,08,41,58.80
2009,11,11,08,42,69.00
2009,11,11,08,43,134.50
2009,11,11,08,44,165.00
2009,11,11,08,45,69.10
2009,11,11,08,46,86.70
2009,11,11,08,47,188.80
2009,11,11,08,48,190.00
2009,11,11,08,49,90.70
2009,11,11,08,50,51.00
2009,11,11,08,51,200.40
2009,11,11,08,52,202.30
2009,11,11,08,53,202.70
2009,11,11,08,54,212.60
2009,11,11,08,55,187.40
2009,11,11,08,56,98.30
2009,11,11,08,57,103.40
2009,11,11,08,58,224.50
2009,11,11,08,59,222.10
2009,11,11,09,00,224.70
2009,11,11,09,01,228.50
2009,11,11,09,02,229.00
2009,11,11,09,03,230.30
2009,11,11,09,04,232.70
2009,11,11,09,05,234.00
2009,11,11,09,06,234.00
2009,11,11,09,07,234.00
2009,11,11,09,08,235.80
2009,11,11,09,09,237.70
2009,11,11,09,10,242.00
2009,11,11,09,11,245.00
2009,11,11,09,12,247.30
2009,11,11,09,13,249.50
2009,11,11,09,14,251.00
2009,11,11,09,15,253.40
2009,11,11,09,16,255.70
2009,11,11,09,17,256.00
2009,11,11,09,18,256.30
2009,11,11,09,19,257.00
2009,11,11,09,20,258.00
2009,11,11,09,21,260.40
2009,11,11,09,22,262.70
2009,11,11,09,23,264.00
2009,11,11,09,24,264.70
2009,11,11,09,25,266.60
2009,11,11,09,26,267.00
2009,11,11,09,27,267.00
2009,11,11,09,28,267.00
2009,11,11,09,29,268.20
2009,11,11,09,30,270.40
2009,11,11,09,31,271.90
2009,11,11,09,32,272.20
2009,11,11,09,33,274.00
2009,11,11,09,34,274.80
2009,11,11,09,35,277.10
2009,11,11,09,36,278.00
2009,11,11,09,37,280.50
2009,11,11,09,38,285.50
2009,11,11,09,39,278.40
2009,11,11,09,40,286.30
2009,11,11,09,41,290.20
2009,11,11,09,42,293.50
2009,11,11,09,43,296.50
2009,11,11,09,44,301.30
2009,11,11,09,45,302.80
2009,11,11,09,46,303.70
2009,11,11,09,47,315.00
2009,11,11,09,48,325.50
2009,11,11,09,49,318.50
2009,11,11,09,50,340.70
2009,11,11,09,51,307.40
2009,11,11,09,52,325.60
2009,11,11,09,53,342.10
2009,11,11,09,54,343.50
2009,11,11,09,55,343.40
2009,11,11,09,56,341.30
2009,11,11,09,57,336.70
2009,11,11,09,58,346.00
2009,11,11,09,59,196.50
2009,11,11,10,00,156.80
2009,11,11,10,01,149.00
2009,11,11,10,02,130.00
2009,11,11,10,03,135.80
2009,11,11,10,04,149.00
2009,11,11,10,05,149.00
2009,11,11,10,06,343.40
2009,11,11,10,07,307.60
2009,11,11,10,08,357.20
2009,11,11,10,09,424.30
2009,11,11,10,10,481.50
2009,11,11,10,11,454.40
2009,11,11,10,12,421.00
2009,11,11,10,13,399.60
2009,11,11,10,14,363.40
2009,11,11,10,15,312.70
2009,11,11,10,16,340.90
2009,11,11,10,17,356.10
2009,11,11,10,18,327.00
2009,11,11,10,19,278.70
2009,11,11,10,20,352.80
2009,11,11,10,21,362.20
2009,11,11,10,22,360.70
2009,11,11,10,23,356.90
2009,11,11,10,24,376.50
2009,11,11,10,25,377.70
2009,11,11,10,26,375.40
2009,11,11,10,27,364.00
2009,11,11,10,28,341.30
2009,11,11,10,29,310.30
2009,11,11,10,30,347.60
2009,11,11,10,31,370.40
2009,11,11,10,32,367.00
2009,11,11,10,33,362.30
2009,11,11,10,34,372.30
2009,11,11,10,35,391.00
2009,11,11,10,36,386.20
2009,11,11,10,37,396.10
2009,11,11,10,38,409.10
2009,11,11,10,39,428.80
2009,11,11,10,40,456.60
2009,11,11,10,41,455.50
2009,11,11,10,42,418.70
2009,11,11,10,43,446.00
2009,11,11,10,44,446.70
2009,11,11,10,45,443.30
2009,11,11,10,46,439.00
2009,11,11,10,47,430.80
2009,11,11,10,48,430.40
2009,11,11,10,49,424.30
2009,11,11,10,50,431.50
2009,11,11,10,51,454.50
2009,11,11,10,52,463.10
2009,11,11,10,53,461.50
2009,11,11,10,54,443.30
2009,11,11,10,55,474.00
2009,11,11,10,56,491.50
2009,11,11,10,57,494.00
2009,11,11,10,58,494.00
2009,11,11,10,59,492.30
2009,11,11,11,00,492.70
2009,11,11,11,01,501.50
2009,11,11,11,02,511.50
2009,11,11,11,03,519.90
2009,11,11,11,04,509.80
2009,11,11,11,05,506.00
2009,11,11,11,06,238.70
2009,11,11,11,07,215.10
2009,11,11,11,08,223.00
2009,11,11,11,09,229.00
2009,11,11,11,10,229.00
2009,11,11,11,11,326.30
2009,11,11,11,12,364.60
2009,11,11,11,13,338.00
2009,11,11,11,14,338.00
2009,11,11,11,15,354.30
2009,11,11,11,16,366.00
2009,11,11,11,17,536.00
2009,11,11,11,18,530.30
2009,11,11,11,19,512.70
2009,11,11,11,20,501.00
2009,11,11,11,21,501.00
2009,11,11,11,22,315.60
2009,11,11,11,23,261.70
2009,11,11,11,24,234.20
2009,11,11,11,25,252.70
2009,11,11,11,26,186.10
2009,11,11,11,27,183.20
2009,11,11,11,28,193.40
2009,11,11,11,29,239.00
2009,11,11,11,30,294.60
2009,11,11,11,31,539.30
2009,11,11,11,32,555.00
2009,11,11,11,33,382.50
2009,11,11,11,34,231.70
2009,11,11,11,35,202.20
2009,11,11,11,36,209.50
2009,11,11,11,37,228.20
2009,11,11,11,38,253.70
2009,11,11,11,39,317.90
2009,11,11,11,40,253.90
2009,11,11,11,41,315.10
2009,11,11,11,42,279.00
2009,11,11,11,43,311.00
2009,11,11,11,44,311.00
2009,11,11,11,45,394.30
2009,11,11,11,46,347.50
2009,11,11,11,47,372.00
2009,11,11,11,48,552.00
2009,11,11,11,49,538.70
2009,11,11,11,50,613.50
2009,11,11,11,51,649.90
2009,11,11,11,52,663.10
2009,11,11,11,53,639.70
2009,11,11,11,54,618.70
2009,11,11,11,55,603.40
2009,11,11,11,56,580.90
2009,11,11,11,57,568.40
2009,11,11,11,58,555.70
2009,11,11,11,59,571.20
2009,11,11,12,00,574.80
2009,11,11,12,01,548.20
2009,11,11,12,02,533.30
2009,11,11,12,03,547.00
2009,11,11,12,04,558.80
2009,11,11,12,05,515.80
2009,11,11,12,06,498.50
2009,11,11,12,07,560.00
2009,11,11,12,08,561.90
2009,11,11,12,09,549.60
2009,11,11,12,10,513.70
2009,11,11,12,11,527.40
2009,11,11,12,12,529.70
2009,11,11,12,13,534.70
2009,11,11,12,14,549.20
2009,11,11,12,15,519.20
2009,11,11,12,16,512.90
2009,11,11,12,17,512.00
2009,11,11,12,18,512.00
2009,11,11,12,19,491.40
2009,11,11,12,20,454.20
2009,11,11,12,21,446.00
2009,11,11,12,22,395.90
2009,11,11,12,23,377.00
2009,11,11,12,24,367.60
2009,11,11,12,25,403.80
2009,11,11,12,26,412.20
2009,11,11,12,27,444.40
2009,11,11,12,28,371.40
2009,11,11,12,29,324.50
2009,11,11,12,30,292.00
2009,11,11,12,31,398.70
2009,11,11,12,32,474.10
2009,11,11,12,33,469.10
2009,11,11,12,34,429.00
2009,11,11,12,35,234.00
2009,11,11,12,36,336.50
2009,11,11,12,37,399.40
2009,11,11,12,38,358.70
2009,11,11,12,39,415.00
2009,11,11,12,40,431.00
2009,11,11,12,41,431.40
2009,11,11,12,42,432.00
2009,11,11,12,43,436.40
2009,11,11,12,44,442.20
2009,11,11,12,45,449.10
2009,11,11,12,46,450.00
2009,11,11,12,47,449.30
2009,11,11,12,48,451.30
2009,11,11,12,49,459.30
2009,11,11,12,50,467.10
2009,11,11,12,51,475.20
2009,11,11,12,52,483.30
2009,11,11,12,53,500.20
2009,11,11,12,54,508.00
2009,11,11,12,55,478.60
2009,11,11,12,56,530.20
2009,11,11,12,57,547.70
2009,11,11,12,58,545.40
2009,11,11,12,59,550.30
2009,11,11,13,00,552.10
2009,11,11,13,01,540.50
2009,11,11,13,02,506.70
2009,11,11,13,03,512.90
2009,11,11,13,04,519.00
2009,11,11,13,05,510.60
2009,11,11,13,06,491.00
2009,11,11,13,07,463.70
2009,11,11,13,08,477.70
2009,11,11,13,09,481.40
2009,11,11,13,10,451.80
2009,11,11,13,11,408.90
2009,11,11,13,12,454.10
2009,11,11,13,13,471.50
2009,11,11,13,14,477.50
2009,11,11,13,15,486.60
2009,11,11,13,16,496.00
2009,11,11,13,17,430.30
2009,11,11,13,18,350.00
2009,11,11,13,19,217.10
2009,11,11,13,20,167.60
2009,11,11,13,21,167.00
2009,11,11,13,22,167.70
2009,11,11,13,23,173.60
2009,11,11,13,24,172.60
2009,11,11,13,25,178.60
2009,11,11,13,26,196.90
2009,11,11,13,27,212.90
2009,11,11,13,28,219.30
2009,11,11,13,29,240.00
2009,11,11,13,30,264.00
2009,11,11,13,31,409.50
2009,11,11,13,32,457.30
2009,11,11,13,33,336.00
2009,11,11,13,34,398.10
2009,11,11,13,35,503.50
2009,11,11,13,36,483.30
2009,11,11,13,37,448.10
2009,11,11,13,38,406.50
2009,11,11,13,39,368.50
2009,11,11,13,40,260.90
2009,11,11,13,41,252.60
2009,11,11,13,42,245.30
2009,11,11,13,43,234.30
2009,11,11,13,44,214.00
2009,11,11,13,45,211.50
2009,11,11,13,46,204.00
2009,11,11,13,47,333.50
2009,11,11,13,48,443.00
2009,11,11,13,49,443.00
2009,11,11,13,50,281.80
2009,11,11,13,51,278.80
2009,11,11,13,52,305.40
2009,11,11,13,53,327.00
2009,11,11,13,54,453.70
2009,11,11,13,55,482.00
2009,11,11,13,56,462.10
2009,11,11,13,57,452.00
2009,11,11,13,58,454.40
2009,11,11,13,59,457.00
2009,11,11,14,00,450.00
2009,11,11,14,01,451.80
2009,11,11,14,02,445.00
2009,11,11,14,03,375.50
2009,11,11,14,04,208.00
2009,11,11,14,05,212.70
2009,11,11,14,06,214.80
2009,11,11,14,07,209.50
2009,11,11,14,08,210.50
2009,11,11,14,09,197.20
2009,11,11,14,10,189.90
2009,11,11,14,11,182.10
2009,11,11,14,12,170.80
2009,11,11,14,13,167.50
2009,11,11,14,14,177.30
2009,11,11,14,15,190.00
2009,11,11,14,16,259.50
2009,11,11,14,17,312.10
2009,11,11,14,18,289.80
2009,11,11,14,19,293.10
2009,11,11,14,20,304.50
2009,11,11,14,21,282.00
2009,11,11,14,22,235.60
2009,11,11,14,23,201.60
2009,11,11,14,24,127.70
2009,11,11,14,25,128.10
2009,11,11,14,26,137.70
2009,11,11,14,27,147.00
2009,11,11,14,28,131.90
2009,11,11,14,29,108.80
2009,11,11,14,30,122.80
2009,11,11,14,31,135.00
2009,11,11,14,32,136.00
2009,11,11,14,33,143.50
2009,11,11,14,34,154.10
2009,11,11,14,35,151.60
2009,11,11,14,36,135.40
2009,11,11,14,37,127.00
2009,11,11,14,38,130.70
2009,11,11,14,39,138.10
2009,11,11,14,40,139.40
2009,11,11,14,41,134.00
2009,11,11,14,42,130.20
2009,11,11,14,43,130.70
2009,11,11,14,44,134.30
2009,11,11,14,45,146.50
2009,11,11,14,46,161.20
2009,11,11,14,47,170.90
2009,11,11,14,48,173.40
2009,11,11,14,49,158.40
2009,11,11,14,50,151.70
2009,11,11,14,51,147.50
2009,11,11,14,52,135.90
2009,11,11,14,53,133.60
2009,11,11,14,54,138.90
2009,11,11,14,55,142.30
2009,11,11,14,56,144.00
2009,11,11,14,57,146.20
2009,11,11,14,58,150.10
2009,11,11,14,59,148.40
2009,11,11,15,00,147.10
2009,11,11,15,01,134.90
2009,11,11,15,02,125.30
2009,11,11,15,03,116.40
2009,11,11,15,04,113.00
2009,11,11,15,05,99.30
2009,11,11,15,06,93.00
2009,11,11,15,07,91.00
2009,11,11,15,08,90.60
2009,11,11,15,09,90.00
2009,11,11,15,10,90.00
2009,11,11,15,11,90.00
2009,11,11,15,12,88.10
2009,11,11,15,13,88.00
2009,11,11,15,14,88.00
2009,11,11,15,15,88.00
2009,11,11,15,16,86.50
2009,11,11,15,17,86.00
2009,11,11,15,18,86.00
2009,11,11,15,19,85.40
2009,11,11,15,20,84.00
2009,11,11,15,21,83.40
2009,11,11,15,22,83.00
2009,11,11,15,23,81.10
2009,11,11,15,24,80.70
2009,11,11,15,25,79.00
2009,11,11,15,26,78.00
2009,11,11,15,27,77.00
2009,11,11,15,28,76.20
2009,11,11,15,29,75.90
2009,11,11,15,30,74.00
2009,11,11,15,31,73.30
2009,11,11,15,32,72.00
2009,11,11,15,33,70.80
2009,11,11,15,34,70.00
2009,11,11,15,35,68.80
2009,11,11,15,36,66.50
2009,11,11,15,37,64.20
2009,11,11,15,38,62.50
2009,11,11,15,39,59.10
2009,11,11,15,40,56.50
2009,11,11,15,41,53.90
2009,11,11,15,42,52.50
2009,11,11,15,43,51.00
2009,11,11,15,44,49.90
2009,11,11,15,45,49.00
2009,11,11,15,46,47.40
2009,11,11,15,47,47.00
2009,11,11,15,48,46.80
2009,11,11,15,49,46.00
2009,11,11,15,50,44.80
2009,11,11,15,51,44.00
2009,11,11,15,52,42.30
2009,11,11,15,53,42.00
2009,11,11,15,54,41.40
2009,11,11,15,55,40.00
2009,11,11,15,56,39.40
2009,11,11,15,57,39.00
2009,11,11,15,58,39.00
2009,11,11,15,59,38.70
2009,11,11,16,00,37.00
2009,11,11,16,01,36.10
2009,11,11,16,02,35.00
2009,11,11,16,03,35.00
2009,11,11,16,04,33.10
2009,11,11,16,05,33.00
2009,11,11,16,06,32.70
2009,11,11,16,07,32.00
2009,11,11,16,08,30.70
2009,11,11,16,09,28.40
2009,11,11,16,10,27.90
2009,11,11,16,11,26.00
2009,11,11,16,12,26.00
2009,11,11,16,13,25.50
2009,11,11,16,14,25.00
2009,11,11,16,15,25.00
2009,11,11,16,16,24.90
2009,11,11,16,17,23.00
2009,11,11,16,18,23.00
2009,11,11,16,19,23.00
2009,11,11,16,20,23.00
2009,11,11,16,21,23.00
2009,11,11,16,22,21.00
2009,11,11,16,23,20.50
2009,11,11,16,24,19.00
2009,11,11,16,25,18.50
2009,11,11,16,26,18.00
2009,11,11,16,27,16.40
2009,11,11,16,28,14.00
2009,11,11,16,29,13.40
2009,11,11,16,30,11.60
2009,11,11,16,31,9.90
2009,11,11,16,32,9.00
2009,11,11,16,33,7.20
2009,11,11,16,34,6.80
2009,11,11,16,35,5.00
2009,11,11,16,36,5.00
2009,11,11,16,37,2.00
2009,11,11,16,38,0.00
2009,11,11,16,39,0.00
2009,11,11,16,40,0.00
2009,11,11,16,41,0.00
2009,11,11,16,42,0.00
2009,11,11,16,43,0.00
2009,11,11,16,44,0.00
2009,11,11,16,45,0.00
2009,11,11,16,46,0.00
2009,11,11,16,47,0.00
2009,11,11,16,48,0.00
2009,11,11,16,49,0.00
2009,11,11,16,50,0.00
2009,11,11,16,51,0.00
2009,11,11,16,52,0.00
2009,11,11,16,53,0.00
2009,11,11,16,54,0.00
2009,11,11,16,55,0.00
2009,11,11,16,56,0.00
2009,11,11,16,57,0.00
2009,11,11,16,58,0.00
2009,11,11,16,59,0.00
2009,11,11,17,00,0.00
2009,11,11,17,01,0.00
2009,11,11,17,02,0.00
2009,11,11,17,03,0.00
2009,11,11,17,04,0.00
2009,11,11,17,05,0.00
2009,11,11,17,06,0.00
2009,11,11,17,07,0.00
2009,11,11,17,08,0.00
2009,11,11,17,09,0.00
2009,11,11,17,10,0.00
2009,11,11,17,11,0.00
2009,11,11,17,12,0.00
2009,11,11,17,13,0.00
2009,11,11,17,14,0.00
2009,11,11,17,15,0.00
2009,11,11,17,16,0.00
2009,11,11,17,17,0.00
2009,11,11,17,18,0.00
2009,11,11,17,19,0.00
2009,11,11,17,20,0.00
2009,11,11,17,21,0.00
2009,11,11,17,22,0.00
2009,11,11,17,23,0.00